www.pogodaiklimat.ru
ПОГОДА в Эванстоне
Время
и дата
06:46 06.02
06:53 06.02
07:02 06.02
07:25 06.02
07:53 06.02
08:10 06.02
08:40 06.02
08:53 06.02
09:53 06.02
10:53 06.02
11:53 06.02
12:26 06.02
12:34 06.02
12:53 06.02
13:53 06.02
14:53 06.02
15:53 06.02
16:24 06.02
16:32 06.02
16:53 06.02
17:53 06.02
18:53 06.02
19:53 06.02
20:53 06.02
21:53 06.02
22:53 06.02
23:53 06.02
00:53 07.02
01:53 07.02
02:53 07.02
03:53 07.02
04:53 07.02
05:53 07.02
06:53 07.02
07:53 07.02
08:53 07.02
09:53 07.02
10:53 07.02
11:53 07.02
12:53 07.02
13:53 07.02
14:53 07.02
15:53 07.02
16:53 07.02
17:53 07.02
18:53 07.02
19:53 07.02
20:53 07.02
Ветер
(напр.,м/с)
Видим. Явления Облачность Т
(С)
Тd
(С)
f
(%)
Тe
(С)
Тes
(С)
Комфортность P
(гПа)
Po
(гПа)
Тmin
(С)
Tmax
(С)
R
(мм)
R24
(мм)
S
(см)
ЮЗ 5 8 км дымка 10/10 60 м -7.2 -8.3 92 -15 -15 778.4
ЮЗ 6 6 км слабый снег, дымка 10/10 60 m
[Ns]
-6.7 -8.3 88 -15 -15 1018.5 778.4
ЮЗ 6 5 км слабый снег, дымка 10/10 60 m
[Ns]
-6.7 -8.3 88 -15 -15 778.4
З 6 13 км 10/10 60 м -6.7 -8.9 84 -15 -15 778.4
ЮЗ 7 16 км 10/10 840 м -6.7 -8.3 88 -15 -15 1019.5 778.6
ЮЗ 7 16 км 8/8 780 м -6.7 -8.3 88 -15 -15 778.9
ЮЗ 6 16 км 10/10 750 м -6.1 -8.3 84 -14 -14 779.2
ЮЗ 5 16 км 10/10 1650 м -6.7 -8.3 88 -14 -14 1020.7 779.2
ЮЗ 5 11 км слабый снег 10/10 840 m
[Ns]
-5.6 -7.2 88 -13 -13 1021.0 779.9
ЮЗ 4 16 км 10/10 1290 м -4.4 -6.1 88 -11 -11 1021.5 780.4 -9.4 -4.4
З 4 16 км 10/10 1050 м -3.3 -6.7 77 -9 -9 1022.6 781.2
З 4 16 км 10/10 870 м -2.8 -7.8 68 -9 -9 781.2
З 3 16 км 10/10 900 м -2.8 -7.8 68 -8 -8 781.2
СЗ 5 13 км слабый снег 10/10 1080 m
[Ns]
-2.2 -7.2 69 -8 -8 1022.4 781.2
СЗ 7 14 км 10/10 1110 м -2.2 -7.8 65 -9 -9 1022.7 781.5
СЗ 5 16 км 10/10 1020 м -1.7 -7.2 66 -8 -8 1022.0 781.7
СЗ 2 16 км 2/2 930 м -2.8 -6.7 74 -7 -4 1023.2 782.3
СЗ 2 4 км слабый снег 8/8 870 m
[Ns]
-3.3 -7.2 74 -7 -7 782.5
С 2 5 км слабый снег 8/8 1140 m
[Ns]
-3.9 -7.2 78 -8 -8 782.5
С 2 16 км 8/8 900 м -3.9 -7.2 78 -8 -8 1024.6 782.8 -4.4 -1.7
Ю 2 16 км 10/10 1050 м -5.0 -7.8 81 -9 -9 1025.8 783.3
З 2 14 км слабый снег 10/10 900 m
[Ns]
-5.6 -7.8 84 -10 -10 1026.3 783.8
З 5 14 км 10/10 1290 м -5.6 -8.9 78 -13 -13 1026.9 784.3
З 4 16 км 10/10 1350 м -6.1 -9.4 77 -13 -13 1027.3 784.6
З 4 16 км 10/10 1260 м -6.1 -8.9 81 -13 -13 1027.3 784.9
З 4 16 км 10/10 1170 м -6.1 -8.3 84 -13 -13 1027.4 785.1 -6.7 -3.9
ЮЗ 5 16 км 10/10 1200 м -5.6 -8.3 81 -13 -13 1027.3 785.4
ЮЗ 4 16 км 10/10 1110 м -5.0 -8.3 78 -11 -11 1026.7 785.4
З 5 16 км 10/10 1110 м -5.6 -8.3 81 -13 -13 1027.3 785.6
З 6 16 км 10/10 1020 м -5.6 -8.3 81 -13 -13 1026.9 785.6
ЮЗ 4 16 км 10/10 1020 м -5.6 -8.3 81 -12 -12 1027.2 785.6
ЮЗ 4 16 км 8/8 1050 м -6.7 -9.4 81 -13 -13 1028.1 785.6 -6.7 -5.0
З 5 16 км ясно -8.3 -11.1 80 -16 -16 1029.5 785.9
ЮЗ 4 16 км ясно -9.4 -11.7 83 -16 -16 1030.6 786.4
ЮЗ 4 16 км ясно -8.3 -11.1 80 -15 -15 1030.7 786.7
ЮЗ 3 16 км ясно -7.8 -10.0 84 -14 -13 1031.4 787.2
ЮЗ 4 16 км ясно -7.8 -10.0 84 -15 -13 1031.1 787.2
ЮЗ 7 16 км ясно -6.1 -8.9 81 -15 -14 1031.2 787.5 -9.4 -6.1
ЮЗ 6 16 км ясно -5.0 -8.3 78 -13 -10 1030.4 787.2
ЮЗ 6 16 км ясно -3.9 -7.2 78 -11 -9 1029.5 786.9
ЮЗ 7 16 км ясно -2.2 -7.2 69 -10 -8 1028.4 786.4
ЮЗ 6 16 км ясно -2.2 -7.2 69 -9 -7 1028.3 786.2
ЮЗ 4 16 км ясно -2.8 -6.7 74 -9 -6 1028.5 786.4
ЮЗ 4 16 км ясно -3.9 -7.8 74 -10 -9 1028.8 786.2 -6.1 -2.2
ЮЗ 4 16 км ясно -6.1 -10.0 74 -13 -12 1030.4 786.2
З 6 16 км ясно -7.8 -11.1 77 -16 -16 1031.2 786.4
ЮЗ 3 16 км ясно -7.2 -10.6 77 -13 -13 1030.7 786.4
ЮЗ 5 16 км ясно -8.9 -11.1 84 -17 -17 1031.0 786.2
Местоположение метеостанции Evanston-Uninta County Burns Field: широта 41.2731 долгота -111.0306 высота над уровнем моря 2183 м.
В архиве по умолчанию представлена погода в Эванстоне за последние 1-2 суток. Обновление информации о фактической погоде в базе происходит ежечасно! Архивные данные за месяц целиком и за предыдущие месяцы Вы можете получить, выбрав интересующий диапазон дат из раскрывающегося списка и нажав кнопку "Ввод!".
Внимание! Архив погоды МЕТАР в базе сайта по станциям, не включенным в климатический монитор, хранится не более 60 дней. Нет смысла пытаться выбрать более раннюю дату.
*Определитесь, кто Вы:
Внимание! Время в таблицах - местное (без учета летнего времени). Для получения всемирного времени необходимо вычесть поправку, которая равна -7 ч.
Смотрите также архив погоды в соседних городах и на ближайших метеорологических станциях:
Партнеры нашего сайта:      
Пояснения к столбцам:
  • Ветер - указаны скорость ветра в м/с - средняя за 10 мин, порывы в срок и между сроками (в фигурных скобках) и направление, откуда дует ветер: С - северный,
  • СВ - северо-восточный, В - восточный, ЮВ - юго-восточный, Ю - южный, ЮЗ - юго-западный, З - западный, СЗ - северо-западный.
  • Видимость - горизонтальная дальность видимости в метрах или километрах. При видимости от 1 до 10 км при отсутствии осадков обычно наблюдается дымка, при ухудшении видимости до 1 км и менее - туман. В сухую погоду видимость может ухудшаться дымом, пылью или мглою.
  • Явления - указаны атмосферные явления, наблюдавшиеся в срок или в последний час перед сроком; фигурными скобками обозначены явления, наблюдавшиеся между сроками (за 1-3 часа до срока); квадратными скобками обозначены град или гололедные отложения с указанием их диаметра в мм.
  • Облачность - указаны через наклонную черту общая и нижняя облачность в баллах и высота нижней границы облаков в метрах; квадратными скобками обозначены формы облаков: Ci - перистые, Cs - перисто-слоистые, Cc - перисто-кучевые, Ac - высококучевые, As - высокослоистые, Sc - слоисто-кучевые, Ns - слоисто-дождевые, Cu - кучевые, Cb - кучево-дождевые. Подробнее классификацию облаков см. в Атласе облаков (PDF).
  • T - Температура воздуха - температура, измеренная на высоте 2 м над землей.
  • Td - Температура точки росы - температура, при понижении до которой содержащийся в воздухе водяной пар достигнет насыщения.
  • f - Относительная влажность воздуха - влажноcть воздуха, измеренная на высоте 2 м над землей.
  • Te - Эффективная температура - температура, которую ощущает одетый по сезону человек в тени. Характеристика душности погоды. При расчете учитывается влияние влажности воздуха и скорости ветра на теплоощущения человека.
  • Tes - Эффективная температура на солнце - температура, которую ощущает человек, с поправкой на солнечный нагрев. Характеристика знойности погоды. Зависит от высоты солнца над горизонтом, облачности и скорости ветра. Ночью, в пасмурную погоду, а также при ветре 12 м/с и более поправка равна нулю.
  • P - Атмосферное давление - приведенное к уровню моря атмосферное давление.
  • Po - Атмосферное давление - измеренное на уровне метеостанции атмосферное давление.
  • Tmin - Минимальная температура - минимум температуры воздуха на высоте 2 м над землей.
  • Tmax - Максимальная температура - максимум температуры воздуха на высоте 2 м над землей.
  • R - Количество осадков - Количество выпавших осадков за период времени, мм. При наведении курсора мыши на число - период времени, за который выпало указанное количество осадков.
  • R24 - Количество осадков - Количество выпавших осадков за 24 часа, мм.
  • S - Снежный покров - Высота снежного покрова, см. При наведении курсора мыши на число - состояние снежного покрова и степень покрытия местности в баллах.